Location: Boca do Mato
(22.9085°S, 43.2930°W)
Time: 22:19:47
(UTC+00:00)

DELTA 2 R/B (1) - Pass Details

Date: 14 July 2020
Orbit: 790 x 803 km, 39.6° (Epoch: 10 August)

Event Time Altitude Azimuth Distance (km) Brightness Sun altitude
Exits shadow 08:29:20 21° 264° (W) 1,731 4.7 -14.7°
Maximum altitude 08:32:31 39° 208° (SSW) 1,187 4.1 -14.0°
Drops below altitude 10° 08:37:47 10° 139° (SE) 2,385 6.3 -12.9°
Sets 08:40:27 0° 131° (SE) 3,316 7.2 -12.3°
